DW0108 Weather Reports


Display with metric or nautical units.
time (UTC)temp
F
wind
direction
speed
MPH
gust
MPH
rain 1hr
in
rain 24hr
in
rain mn
in
humidity
%
barometer
mb
20260902164808 94 150 0.0 2.0 0.00 0.00 0.00 47 1016.2
20260902162835 93 200 0.0 2.0 0.00 0.00 0.00 48 1016.2
20260902161823 93 132 0.0 3.0 0.00 0.00 0.00 48 1016.5
20260902155817 91 174 0.0 1.0 0.00 0.00 0.00 54 1016.5
20260902154830 92 82 1.0 2.0 0.00 0.00 0.00 52 1016.5
20260902153826 90 145 0.0 2.0 0.00 0.00 0.00 56 1016.5
20260902152826 89 162 1.0 4.0 0.00 0.00 0.00 59 1016.5
20260902151806 89 114 0.0 2.0 0.00 0.00 0.00 60 1016.5
20260902150808 88 135 0.0 2.0 0.00 0.00 0.00 62 1016.5
20260902145828 88 149 1.0 2.0 0.00 0.00 0.00 62 1016.5
20260902144816 87 152 0.0 2.0 0.00 0.00 0.00 63 1016.5
20260902143845 87 113 0.0 1.0 0.00 0.00 0.00 64 1016.5
20260902142828 86 159 1.0 4.0 0.00 0.00 0.00 66 1016.9
20260902141815 85 202 0.0 2.0 0.00 0.00 0.00 67 1016.5
20260902140841 85 116 0.0 2.0 0.00 0.00 0.00 69 1016.5
20260902135832 84 142 0.0 2.0 0.00 0.00 0.00 70 1016.5
20260902134839 83 148 0.0 2.0 0.00 0.00 0.00 72 1016.5
20260902132828 81 171 0.0 1.0 0.00 0.00 0.00 77 1016.5
20260902131804 80 69 0.0 0.0 0.00 0.00 0.00 78 1016.2
20260902130846 79 98 0.0 1.0 0.00 0.00 0.00 81 1016.2
20260902124816 77 211 0.0 0.0 0.00 0.00 0.00 85 1016.2
20260902123828 77 229 0.0 0.0 0.00 0.00 0.00 85 1015.9
20260902122814 77 60 0.0 0.0 0.00 0.00 0.00 86 1016.2
20260902121832 77 112 0.0 0.0 0.00 0.00 0.00 86 1015.9
20260902120822 76 48 0.0 0.0 0.00 0.00 0.00 86 1015.9
20260902114844 77 210 0.0 1.0 0.00 0.00 0.00 85 1015.9
20260902113818 77 82 0.0 0.0 0.00 0.00 0.00 84 1015.9
20260902111842 77 98 0.0 1.0 0.00 0.00 0.00 84 1015.9
20260902110845 77 81 0.0 1.0 0.00 0.00 0.00 83 1015.9
20260902105810 77 183 0.0 0.0 0.00 0.00 0.00 84 1015.9
20260902103813 78 100 0.0 0.0 0.00 0.00 0.00 83 1015.5
20260902102817 79 89 0.0 0.0 0.00 0.00 0.00 80 1015.9
20260902101829 79 64 0.0 1.0 0.00 0.00 0.00 80 1015.5
20260902100834 79 52 0.0 0.0 0.00 0.00 0.00 80 1015.5
20260902095816 79 89 0.0 0.0 0.00 0.00 0.00 79 1015.5
20260902093824 79 86 0.0 1.0 0.00 0.00 0.00 78 1015.5
20260902092820 80 76 0.0 1.0 0.00 0.00 0.00 77 1015.9
20260902091826 81 203 0.0 0.0 0.00 0.00 0.00 77 1015.9
20260902084823 81 41 0.0 0.0 0.00 0.00 0.00 74 1015.9
20260902083818 82 14 0.0 0.0 0.00 0.00 0.00 73 1015.9
20260902081845 82 89 0.0 1.0 0.00 0.00 0.00 71 1015.9
20260902080805 83 136 0.0 1.0 0.00 0.00 0.00 69 1015.9
20260902074847 84 109 0.0 2.0 0.00 0.00 0.00 67 1015.9
20260902073804 84 152 1.0 2.0 0.00 0.00 0.00 67 1015.9
20260902072834 84 155 1.0 2.0 0.00 0.00 0.00 66 1016.2
20260902070805 84 155 1.0 3.0 0.00 0.00 0.00 66 1015.9
20260902065814 85 138 1.0 3.0 0.00 0.00 0.00 66 1016.2
20260902064832 85 155 1.0 3.0 0.00 0.00 0.00 65 1016.2
20260902062818 85 179 1.0 2.0 0.00 0.00 0.00 64 1015.9
20260902061835 86 156 1.0 4.0 0.00 0.00 0.00 62 1015.9
20260902060827 86 169 2.0 4.0 0.00 0.00 0.00 62 1015.9
20260902055836 86 166 2.0 3.0 0.00 0.00 0.00 61 1015.9
20260902054815 86 173 2.0 4.0 0.00 0.00 0.00 60 1015.5
20260902053837 87 159 2.0 4.0 0.00 0.00 0.00 60 1015.5
20260902052843 87 170 2.0 3.0 0.00 0.00 0.00 59 1015.2
20260902051834 87 170 1.0 5.0 0.00 0.00 0.00 59 1015.5
20260902050811 88 174 1.0 3.0 0.00 0.00 0.00 58 1015.2
20260902045826 88 164 1.0 6.0 0.00 0.00 0.00 57 1015.5
20260902044842 88 113 1.0 3.0 0.00 0.00 0.00 56 1015.2
20260902043845 87 117 0.0 1.0 0.00 0.00 0.00 58 1015.2
20260902042807 88 96 0.0 1.0 0.00 0.00 0.00 56 1014.8
20260902041839 89 146 0.0 1.0 0.00 0.00 0.00 54 1014.8
20260902040832 89 138 0.0 1.0 0.00 0.00 0.00 54 1015.2
20260902035846 90 123 0.0 2.0 0.00 0.00 0.00 53 1015.2
20260902034810 90 146 0.0 2.0 0.00 0.00 0.00 52 1014.8
20260902032849 91 156 0.0 2.0 0.00 0.00 0.00 50 1014.8
20260902031835 91 163 0.0 1.0 0.00 0.00 0.00 51 1014.8
20260902025804 91 104 0.0 0.0 0.00 0.00 0.00 50 1014.5
20260902024817 91 160 0.0 0.0 0.00 0.00 0.00 50 1014.2
20260902023823 91 121 0.0 1.0 0.00 0.00 0.00 49 1014.2
20260902022807 92 152 0.0 1.0 0.00 0.00 0.00 48 1014.2
20260902021826 92 100 0.0 1.0 0.00 0.00 0.00 49 1013.8
20260902014805 93 138 0.0 1.0 0.00 0.00 0.00 47 1013.5
20260902013829 93 134 0.0 2.0 0.00 0.00 0.00 47 1013.5
20260902012847 93 132 0.0 2.0 0.00 0.00 0.00 47 1013.8
20260902011804 94 109 0.0 1.0 0.00 0.00 0.00 46 1013.5
20260902010828 94 115 0.0 2.0 0.00 0.00 0.00 45 1013.5
20260902005839 94 136 0.0 1.0 0.00 0.00 0.00 45 1013.2
20260902004813 95 126 0.0 2.0 0.00 0.00 0.00 44 1013.2
20260902003810 95 172 0.0 2.0 0.00 0.00 0.00 44 1013.5
20260902001816 97 180 1.0 3.0 0.00 0.00 0.00 42 1013.2
20260902000823 97 128 0.0 1.0 0.00 0.00 0.00 42 1013.5
20260901235829 97 93 0.0 2.0 0.00 0.00 0.00 42 1013.5
20260901234844 97 136 0.0 2.0 0.00 0.00 0.00 41 1013.5
20260901233840 97 181 0.0 3.0 0.00 0.00 0.00 40 1013.5
20260901232828 98 137 1.0 3.0 0.00 0.00 0.00 41 1013.8
20260901231815 98 123 1.0 4.0 0.00 0.00 0.00 40 1013.5
20260901230804 99 156 1.0 3.0 0.00 0.00 0.00 39 1013.5
20260901225815 99 162 1.0 4.0 0.00 0.00 0.00 39 1013.5
20260901224846 99 155 1.0 3.0 0.00 0.00 0.00 39 1013.5
20260901223832 98 179 1.0 4.0 0.00 0.00 0.00 40 1013.5
20260901222841 99 194 1.0 4.0 0.00 0.00 0.00 38 1013.5
20260901221833 99 158 1.0 3.0 0.00 0.00 0.00 37 1013.8
20260901220843 100 115 0.0 2.0 0.00 0.00 0.00 37 1013.5
20260901214810 98 146 1.0 3.0 0.00 0.00 0.00 38 1013.8
20260901213822 100 118 1.0 4.0 0.00 0.00 0.00 37 1014.2
20260901211807 99 120 1.0 2.0 0.00 0.00 0.00 39 1014.2
20260901210813 99 127 1.0 3.0 0.00 0.00 0.00 40 1014.2
20260901204843 98 119 1.0 3.0 0.00 0.00 0.00 41 1014.5
20260901203836 99 101 1.0 3.0 0.00 0.00 0.00 41 1014.5
20260901202829 98 91 1.0 4.0 0.00 0.00 0.00 42 1014.5
20260901201839 98 124 1.0 2.0 0.00 0.00 0.00 41 1014.5
20260901200822 98 146 2.0 4.0 0.00 0.00 0.00 41 1014.8
20260901195839 99 98 1.0 3.0 0.00 0.00 0.00 40 1015.2
20260901194810 97 134 1.0 3.0 0.00 0.00 0.00 41 1014.8
20260901193824 98 129 1.0 2.0 0.00 0.00 0.00 41 1014.8
20260901192824 98 151 1.0 4.0 0.00 0.00 0.00 41 1015.2
20260901190848 97 111 1.0 3.0 0.00 0.00 0.00 43 1015.5
20260901185823 99 132 1.0 3.0 0.00 0.00 0.00 42 1015.5
20260901184824 98 81 2.0 4.0 0.00 0.00 0.00 42 1015.9
20260901183834 97 119 1.0 2.0 0.00 0.00 0.00 42 1015.9
20260901182846 97 121 1.0 4.0 0.00 0.00 0.00 42 1016.2
20260901181842 98 149 1.0 5.0 0.00 0.00 0.00 43 1016.5
20260901175810 97 95 2.0 3.0 0.00 0.00 0.00 45 1016.5
20260901174829 97 95 0.0 3.0 0.00 0.00 0.00 44 1016.9
20260901173809 96 224 0.0 2.0 0.00 0.00 0.00 45 1017.2
20260901172811 95 134 1.0 6.0 0.00 0.00 0.00 46 1017.2
20260901171808 94 188 0.0 3.0 0.00 0.00 0.00 48 1017.2
20260901170819 95 161 2.0 4.0 0.00 0.00 0.00 48 1017.2
20260901165837 95 157 2.0 6.0 0.00 0.00 0.00 47 1017.2